sat.trackr.live / text

‹ back to catalog

IRIDIUM 151

NORAD 43074 · 2017-083E

PAYLOAD ACTIVE UNKNOWN

§ Identity

Operator
Country
US
Launch date
2017-12-23
Launch site
AFWTR
Launch vehicle
Mass (kg)
RCS (m²)

Purposes: comms

External: N2YO · Heavens-Above · Gunter

§ Orbital elements

Epoch: 2026-09-19T18:20:11.144832Z

Period
100.40 min
Inclination
86.3912°
Eccentricity
0.0002087
Mean motion
14.34217609 rev/d
Perigee alt
776.2 km
Apogee alt
779.2 km
Semi-major
7,155.8 km
B*
-2.4785e-5
RAAN
282.5186°
Arg perigee
90.5464°
Mean anomaly
269.5971°
Rev number
45,769

§ Raw data

IRIDIUM 1511 43074U 17083E   26262.76401788 -.00000050  00000+0 -24785-4 0  99922 43074  86.3912 282.5186 0002087  90.5464 269.5971 14.34217609457693

JSON: /api/v1/satellites/43074 · /tle

For live sub-satellite position, see the globe view (requires WebGL).

§ Visibility from observer

Set your observer location to see the next 7 days of passes ≥ 10°. The values pass through the URL so the page stays shareable.

No JS? Fill the form by hand. The geolocation button needs JavaScript.